Regional Weather Roundup
Issued by NWS Charleston, SC

Current Version | Previous Version | Graphics & Text | Print | Product List | Glossary On
Versions: 1 2 3 4 5 6 7 8 9 10 11 12 13 14 15 16 17 18 19 20 21 22 23 24 25 26 27 28 29 30 31 32 33 34 35 36 37 38 39 40 41 42 43 44 45 46 47 48 49 50
000
ASUS42 KCHS 251627
RWRCHS

REGIONAL WEATHER ROUNDUP
NATIONAL WEATHER SERVICE CHARLESTON SC
1100 AM EST SAT FEB 25 2017

NOTE: "FAIR" INDICATES FEW OR NO CLOUDS BELOW 12,000 FEET WITH NO
SIGNIFICANT WEATHER AND/OR OBSTRUCTIONS TO VISIBILITY.

NOT ALL STATIONS ARE QUALITY CONTROLLED. USE DATA WITH CAUTION...
ESPECIALLY DEWPOINT OBSERVATIONS.

SCZ027-030-031-034>040-042>050-251700-
...SOUTHEAST SOUTH CAROLINA...

CITY           SKY/WX    TMP DP  RH WIND       PRES   REMARKS
N CHARLESTON   MOSUNNY   77  59  53 SW10      29.80F
WATERFRONT PRK   N/A     72  64  76 W7        29.80F
MOUNT PLEASANT FAIR      75  61  60 SW10      29.80F
JOHNS ISLAND   FAIR      75  66  73 S10       29.81S
PINOPOLIS        N/A     68  63  83 SW5       29.71F
MONCKS CORNER  FAIR      75  57  53 S13       29.78F
SUMMERVILLE    FAIR      73  59  60 S9        29.79F
BEAUFORT MCAS  SUNNY     77  63  61 SW9       29.81F
BEAUFORT ARPT  FAIR      73  63  68 SW6       29.81F
HILTON HEAD IS SUNNY     73  63  68 SW9       29.83F
WALTERBORO     SUNNY     75  59  57 SW12G18   29.80F
ALLENDALE      PTSUNNY   73  61  64 VRB6G15   29.80R

...SOUTHERN MIDLANDS AND PEE DEE...

CITY           SKY/WX    TMP DP  RH WIND       PRES   REMARKS
GEORGETOWN     FAIR      77  61  57 SW15      29.79F
KINGSTREE      FAIR      73  59  60 S7        29.76F
ORANGEBURG     MOSUNNY   72  61  68 SW14      29.78S
BARNWELL       FAIR      73  63  68 SW13G21   29.79F
AIKEN          CLOUDY    68  57  68 SW14      29.81S
MANNING        FAIR      70  59  68 MISG      29.77F
COLUMBIA       PTSUNNY   73  59  61 SW14G20   29.75F
SUMTER         SUNNY     74  60  61 SW13      29.73F
FLORENCE       SUNNY     75  62  64 SW13      29.74F
MYRTLE BEACH   MOSUNNY   70  63  78 S12       29.80F
N MYRTLE BEACH MOSUNNY   64  61  90 S10       29.79F

$$

GAZ063-065-086>088-099>101-113>116-118-119-134>141-150-251700-
...SOUTHEAST GEORGIA...

CITY           SKY/WX    TMP DP  RH WIND       PRES   REMARKS
SAVANNAH ARPT  MOSUNNY   76  59  55 W14       29.83F
HUNTER AAF     SUNNY     75  68  78 W12G18    29.81F
FORT STEWART   MOSUNNY   76  60  57 W13       29.82F
STATESBORO     CLOUDY    71  63  76 W14       29.84S
SYLVANIA       CLOUDY   N/A N/A N/A W13G18    29.84S
CLAXTON        CLOUDY   N/A N/A N/A SW13      29.85S

...CSRA...CENTRAL AND FAR SOUTHEAST GEORGIA...

CITY           SKY/WX    TMP DP  RH WIND       PRES   REMARKS
THOMSON        CLOUDY    69  56  61 NW13G23   29.84R
AUGUSTA-BUSH   CLOUDY    71  60  68 SW13G21   29.79S
AUGUSTA-DANIEL PTSUNNY   71  57  61 VRB7      29.80S
SWAINSBORO     CLOUDY    70  61  73 W9G18     29.85S
VIDALIA        CLOUDY    70  64  83 SW5       29.86S
EASTMAN        PTSUNNY   73  52  47 NW6       29.88S
HAZLEHURST     CLOUDY    72  65  78 W7        29.86S
ALMA           CLOUDY    67  61  81 W9        29.88S
WAYCROSS       CLOUDY    71  66  84 W8G16     29.90R
JESUP          PTSUNNY   73  59  60 W7        29.87S
BAXLEY         CLOUDY    70  66  88 W6        29.87F
BRUNSWICK      SUNNY     77  64  65 SW9       29.87F
SAINT SIMONS   SUNNY     72  62  71 SW10      29.87F

$$

SCZ027-028-034-036>038-045-046-048>050-GAZ119-141-251700-
...LAKE AND SUPPLEMENTAL COASTAL OBSERVATIONS...

STATION/POSITION TIME  TEMP    WIND        PRES    WAVE   SWELL
                       AIR SEA DIR/SP/G            HT/PER HT/PER/DIR
                 (UTC) (F)     (DEG/KT/KT) (MB)    (FT/S) (FT/S/D)
WINYAH BAY       1545   71     190/  9     1008.0F
LAKE MURRAY      1620   69     250/ 13/ 18 1006.8
ACE BASIN NERRS  1530   71     220/  3     1010.0S
FORT PULASKI     1600   72 63  230/  7/  9 1010.4
SAPELO ISLAND    1600   72     250/  7     1011.0

$$

ANZ835-935-AMZ111-154-330-350-352-354-370-450-454-472-251700-
...C-MAN AND BUOY OBSERVATIONS...

STATION/POSITION TIME  TEMP    WIND        PRES    WAVE   SWELL
                       AIR SEA DIR/SP/G            HT/PER HT/PER/DIR
                 (UTC) (F)     (DEG/KT/KT) (MB)    (FT/S) (FT/S/D)
BUOY 41004       1550   70 70  240/ 17/ 21 1009.6F   6/10   5/120/10
BUOY 41008       1550   64 62  210/ 10/ 12 1010.8F   3/11   3/ 80/11
FOLLY BEACH CMAN 1600   63     210/ 12/ 14 1010.0F
CAPERS NEARSHORE 1608   61 61  230/ 14/ 17 1009.5F
FRIPP NEARSHORE  1608   63 62  230/ 12/ 14 1009.9F


STATION/POSITION TIME  TEMP    WIND        PRES    WAVE   SWELL
                       AIR SEA DIR/SP/G            HT/PER HT/PER/DIR
                 (UTC) (F)     (DEG/KT/KT) (MB)    (FT/S) (FT/S/D)
5E ST. MARYS GA  1600      65                N/A     4/11   2/ 90/11
FRYING PAN BUOY  1610   70 72  220/ 14/ 17 1009.4
BUOY 41025       1550   70 76  260/  8/ 10 1008.2F   7/11   7/120/11
CAPE LOOKOUT NC  1600   70     220/  8/  9 1008.4F
BUOY 41002       1550   70 71  350/  8/ 10 1010.5R   8/10   8/130/10
BUOY 41010       NOT AVBL
ST AUGUSTINE FL  1600   69 67  260/  8/ 10 1013.7F


$$




USA.gov is the U.S. government's official web portal to all federal, state and local government web resources and services.